Wind_Gust
14 13 15 15 15 13 12 11 12 14 12 13 16 16 14 8 10 11 12 13 9 7 9 8 5 7 8 9 8 8 6 9 6 11 14 15 12 10 13 11 9 11
14 14 14 12 10 8 10 10 10 10 11 12 6 7 9 7 10 12 16 10 7 6 6 9 10 10 8 10 12 15 10 13 13 11 13 15 15 12 12 12 11 8
16 16 16 14 14 11 11 9 10 12 17 12 11 11 11 15 15 9 12 12 10 8 10 12 11 13 14 12 14 15 16 15 14 12 12 13 12 13 11 11 9 10
21 19 16 14 14 13 11 11 11 12 12 9 8 8 9 11 14 14 11 17 13 13 10 10 10 10 13 13 13 13 14 14 12 11 14 11 11 11 10 10 9 8
18 15 14 13 12 13 13 14 14 13 13 12 11 11 11 10 13 16 14 16 17 16 12 14 13 13 12 13 12 12 13 13 10 11 13 15 11 10 8 10 9 10
11 12 12 13 13 14 14 16 17 17 14 13 14 16 15 12 10 14 18 18 16 16 14 15 16 14 11 12 12 12 12 12 10 10 11 11 9 8 9 9 9 9
12 12 16 16 15 15 16 15 14 15 17 15 11 13 13 14 14 14 17 18 16 16 15 17 17 16 14 12 12 11 10 10 9 10 11 9 9 8 7 9 9 9
11 13 18 18 18 16 14 14 13 14 13 13 16 13 13 15 16 15 14 17 17 15 16 16 16 16 13 11 12 11 10 11 11 10 8 8 6 7 7 9 8 8
8 11 13 14 16 15 15 15 14 11 13 16 17 14 14 17 17 17 15 15 15 14 13 13 13 13 11 12 12 12 12 10 11 11 11 10 9 11 10 8 8 9
10 8 11 11 11 12 13 13 14 13 14 14 15 14 16 12 11 14 12 14 12 11 12 11 11 10 11 12 13 13 13 12 12 13 13 12 12 11 10 11 11 10
6 7 8 12 13 11 12 12 13 13 12 13 12 14 9 8 13 14 15 14 13 12 11 11 12 12 12 11 10 11 12 13 13 13 13 13 13 12 10 12 11 12
3 3 8 10 9 10 11 12 12 9 10 9 12 14 18 20 15 14 18 15 11 11 11 12 11 12 12 11 10 9 10 12 12 13 13 12 12 11 11 11 12 12
4 1 2 4 4 10 12 10 10 9 8 10 8 11 13 15 12 6 12 13 12 10 11 11 9 9 9 10 9 9 10 10 11 11 11 11 10 11 11 11 11 11
5 6 7 8 6 9 11 12 13 11 9 8 10 12 12 11 13 16 13 7 7 8 6 7 8 7 7 8 9 10 10 9 10 10 10 9 8 9 9 10 11 10
15 8 8 7 9 10 11 12 12 10 8 9 10 9 13 8 6 6 8 8 7 7 7 6 8 7 6 8 9 8 9 10 10 10 10 10 8 7 7 8 8 8
18 16 10 9 9 11 12 14 13 11 12 11 10 10 11 9 8 9 9 10 10 8 7 7 6 4 4 5 5 9 9 9 9 9 9 9 9 8 6 6 7 5
18 19 14 10 11 13 14 14 14 12 12 10 8 10 10 10 11 11 9 8 11 11 9 7 5 3 3 6 7 8 8 7 10 9 8 9 9 9 10 8 4 6
15 20 19 11 8 10 12 11 15 16 15 13 15 11 9 11 11 12 11 10 10 10 10 8 6 3 4 7 8 10 9 10 10 10 10 9 9 10 9 8 9 9
19 17 21 14 8 9 12 13 19 21 16 14 15 11 13 13 11 12 12 8 11 12 10 7 6 4 5 9 11 11 11 9 8 8 9 7 5 4 6 9 10 11
20 17 19 18 13 8 13 19 23 21 19 14 12 11 12 14 12 13 11 10 9 12 11 8 7 6 5 11 14 14 13 10 9 12 12 11 10 9 10 9 8 9
21 21 20 20 22 12 13 17 19 17 15 14 15 17 17 18 17 14 11 10 9 9 12 11 9 7 7 15 18 17 16 12 13 14 15 14 13 12 12 11 10 11
22 21 24 23 24 22 14 14 16 16 16 15 14 14 13 15 13 13 14 11 8 9 14 14 11 11 10 17 20 19 18 16 15 16 16 15 15 12 11 10 10 11
22 21 26 26 26 26 23 17 19 20 18 18 20 15 14 14 15 12 11 12 12 12 16 14 13 12 11 15 19 21 17 17 17 17 16 17 14 11 11 11 11 10
21 22 24 26 28 28 25 23 16 18 18 18 23 21 18 13 13 16 13 12 14 15 13 18 15 14 15 14 13 16 18 20 17 20 16 16 15 12 12 14 16 18
20 21 22 26 28 28 28 24 21 15 18 18 21 23 20 15 10 17 16 15 15 15 15 19 17 15 16 16 15 12 16 17 19 19 19 13 14 15 11 13 12 13
20 21 21 23 25 27 28 25 20 18 18 19 18 22 25 20 15 17 20 18 16 17 18 16 18 16 17 19 17 16 11 14 14 21 19 15 11 13 14 11 10 10
Wind_Speed
6 6 8 8 8 7 7 6 5 5 5 5 6 8 8 4 6 6 8 8 7 5 5 4 3 3 3 5 5 6 5 6 5 4 7 8 7 6 7 7 6 6
7 8 8 7 6 5 6 6 6 6 7 5 2 2 3 4 3 3 7 5 5 4 4 5 6 6 4 5 6 7 5 5 6 6 5 8 8 7 7 8 7 5
10 10 10 9 8 7 7 5 6 7 9 6 7 6 6 9 10 3 5 5 6 5 4 4 5 7 6 6 6 7 7 6 7 6 7 6 5 7 6 6 6 7
13 12 10 9 8 8 7 6 7 7 5 5 5 5 6 6 8 8 6 6 5 6 5 3 5 6 7 7 7 7 7 7 7 6 8 7 7 6 6 6 5 5
9 9 9 8 7 7 7 7 8 8 8 7 6 5 4 6 8 8 8 6 6 6 7 8 6 6 6 7 7 7 7 7 6 7 7 9 7 6 5 6 6 6
4 7 7 8 8 8 8 9 8 8 8 8 8 9 8 6 7 8 8 7 7 6 7 8 7 6 4 5 7 7 7 7 6 6 7 7 6 5 5 5 6 6
5 5 8 8 8 9 9 9 9 8 8 8 6 7 6 7 7 7 8 7 9 8 8 8 7 7 7 7 7 7 6 5 5 7 7 5 5 5 4 5 5 5
6 6 7 6 6 6 8 8 8 8 8 7 9 8 8 9 9 8 7 8 10 9 9 9 9 9 8 7 7 7 6 6 6 6 5 4 4 5 4 5 5 5
4 6 7 7 7 6 7 7 6 6 7 9 8 7 7 7 8 8 8 9 9 8 8 8 8 8 7 7 7 7 7 6 6 7 7 6 5 6 5 4 5 5
3 4 6 7 7 7 7 6 6 6 7 8 8 7 8 6 6 7 7 8 8 7 7 7 7 7 7 7 8 8 8 8 7 7 7 7 7 6 6 6 6 5
3 3 4 5 7 6 6 5 6 6 6 7 6 6 3 2 1 5 8 9 7 7 7 7 7 7 7 7 6 7 8 8 7 7 7 7 7 7 7 7 7 8
2 2 5 5 4 3 2 3 3 4 3 4 6 6 7 11 6 6 10 10 7 7 6 7 7 7 7 7 7 6 6 7 7 7 7 6 6 6 6 7 7 7
3 0 1 2 2 6 8 7 4 3 3 5 4 6 7 8 7 3 5 4 7 6 7 7 6 5 6 6 6 6 6 6 7 6 6 6 6 6 6 6 6 7
3 4 3 4 4 5 6 7 8 8 6 4 4 5 7 5 6 10 9 3 3 4 4 4 5 5 5 5 6 6 6 6 6 6 6 6 5 6 6 6 6 6
10 4 4 4 5 6 7 7 7 6 5 5 4 4 6 6 4 4 5 6 2 3 3 3 5 5 4 5 6 5 6 6 6 6 6 6 5 5 4 5 5 5
9 10 5 5 6 6 7 8 6 6 7 7 6 5 6 6 3 4 5 5 5 3 3 3 4 2 3 5 5 6 6 5 5 6 6 6 6 5 4 4 4 2
8 9 8 5 5 6 5 7 8 7 7 7 5 3 3 6 6 6 5 5 5 5 4 3 3 2 3 6 7 7 5 5 6 6 5 6 6 6 6 5 3 3
8 7 9 6 5 6 7 7 7 9 8 8 8 6 2 4 6 6 6 5 4 4 4 3 2 1 4 6 8 9 8 6 5 6 6 5 5 6 5 5 5 5
11 8 7 8 5 6 7 7 10 9 8 9 9 7 6 6 6 7 6 4 6 6 4 3 2 2 4 8 10 10 10 7 4 4 5 4 3 3 3 5 6 6
12 10 8 9 8 5 5 10 11 11 9 7 6 7 6 6 7 8 6 5 5 6 5 3 2 2 4 10 12 12 11 8 5 7 6 6 5 5 5 5 5 6
13 12 12 9 11 7 4 9 11 8 8 7 8 7 9 8 10 9 6 5 4 4 6 5 3 5 5 12 15 15 14 11 7 7 8 8 7 7 6 6 5 5
13 11 12 14 13 13 0 7 6 10 9 9 8 7 6 7 5 7 9 6 4 4 6 7 5 7 6 13 16 16 15 9 8 9 9 8 8 7 7 6 5 5
13 12 11 14 15 14 14 2 10 10 10 9 11 9 8 6 5 6 6 7 7 5 8 7 6 7 6 11 15 17 13 9 9 9 9 9 8 6 6 6 6 6
13 13 12 13 16 17 14 13 7 9 10 10 12 10 10 7 5 7 7 6 8 8 6 9 7 8 9 10 10 13 13 11 9 10 9 9 8 7 7 8 10 14
12 13 13 11 15 16 16 15 13 6 7 9 10 10 10 8 4 7 8 8 7 8 11 10 8 9 12 12 12 10 10 9 10 10 10 7 8 8 7 7 7 9
11 12 13 13 12 15 16 14 11 10 8 8 8 8 11 9 7 7 11 9 7 9 10 9 10 10 11 14 13 12 9 8 7 11 10 8 6 7 8 6 6 6
Wind_Direction
197 205 210 205 207 199 186 184 186 178 181 176 193 199 201 184 147 149 181 178 176 178 179 170 154 144 167 149 139 133 156 164 158 163 183 179 185 176 184 187 181 182
217 214 218 208 195 186 185 176 168 166 206 182 172 105 87 82 35 191 196 170 168 173 180 180 157 145 169 161 163 164 163 163 177 137 191 202 196 182 190 187 185 177
222 217 210 197 191 185 176 157 155 174 202 183 163 179 173 149 148 213 242 201 172 167 176 192 167 167 182 177 174 173 180 181 189 173 170 218 206 185 189 180 179 177
210 209 202 196 188 181 171 152 156 176 181 164 171 174 181 170 145 165 217 215 199 170 163 187 188 174 181 183 173 176 182 185 190 169 169 184 218 188 180 175 175 174
209 202 199 197 187 176 167 172 170 172 175 183 152 156 177 178 144 165 198 201 212 194 162 193 201 190 179 173 170 169 173 179 180 169 174 188 202 181 176 169 174 180
227 212 202 194 184 171 173 183 184 183 179 178 181 171 184 175 157 168 189 193 211 198 173 189 189 185 182 181 165 174 167 170 173 169 175 184 180 173 164 176 173 178
240 233 215 207 192 179 178 185 189 188 191 194 174 186 173 170 165 172 191 196 203 190 175 184 188 185 178 188 171 167 173 163 169 172 178 179 166 170 163 165 173 179
240 234 226 220 209 192 188 187 182 184 184 183 197 184 169 178 172 174 173 184 209 186 176 180 184 186 178 171 169 168 165 170 178 173 170 156 155 178 171 169 168 179
298 245 223 216 205 202 203 194 185 178 177 184 197 187 185 186 177 168 166 184 203 183 173 175 179 179 175 168 169 169 167 173 178 172 170 170 180 194 180 161 168 188
304 288 240 203 200 199 199 202 192 184 183 189 193 192 186 182 174 172 164 189 186 175 172 173 175 173 174 176 174 171 168 173 178 178 180 185 188 189 179 175 186 191
207 220 231 230 199 193 200 201 202 195 188 187 185 192 149 80 155 174 180 184 177 175 171 173 177 177 176 178 178 175 169 170 178 185 188 189 189 187 182 180 184 195
268 210 189 212 214 190 219 258 266 241 200 209 177 177 148 178 187 206 201 182 173 170 173 173 176 180 179 177 176 171 170 171 176 184 190 186 186 188 186 185 187 195
292 292 132 162 187 175 177 186 196 281 257 220 184 151 167 180 150 111 320 279 174 170 177 177 171 171 174 171 172 173 174 172 171 178 182 185 190 190 191 191 193 194
269 230 206 171 160 181 190 187 183 184 214 216 175 160 144 174 154 175 169 227 258 174 159 155 156 161 168 172 170 174 174 176 175 175 179 188 190 192 190 190 195 196
304 249 217 196 188 179 184 192 191 169 168 174 173 149 145 142 187 154 129 137 123 115 118 115 140 150 153 166 164 169 175 174 178 179 179 185 192 194 195 196 194 193
318 305 242 201 197 193 181 185 182 166 160 164 167 164 153 144 156 124 127 145 130 107 102 115 125 135 141 152 172 168 174 176 170 177 177 184 187 193 205 210 201 177
326 332 310 230 203 192 192 184 176 166 161 149 137 126 144 140 145 137 138 151 148 144 137 133 140 152 162 168 174 178 168 164 170 175 177 178 185 185 200 194 116 91
333 324 341 296 203 195 191 179 165 166 157 147 152 145 208 135 140 135 131 138 123 122 124 133 133 83 176 164 161 168 169 168 171 167 173 175 180 184 181 136 122 101
341 341 341 330 252 207 187 160 171 171 156 158 165 148 141 144 133 123 128 126 128 125 110 90 86 24 161 151 145 146 151 149 148 136 122 100 89 92 105 122 121 113
342 346 353 349 324 232 161 162 173 171 164 135 112 108 125 128 127 122 119 117 118 119 111 85 72 0 158 145 130 121 115 103 98 95 87 79 75 83 97 103 110 120
347 353 6 358 356 321 155 170 168 155 122 116 125 132 143 147 139 127 115 110 105 110 107 79 27 358 163 130 115 108 96 89 85 84 80 74 65 62 66 76 89 98
350 354 14 16 11 1 326 150 153 126 123 114 103 95 83 80 61 100 114 105 98 101 97 78 35 28 132 116 112 106 98 92 88 84 84 79 71 64 63 61 60 75
357 352 12 33 22 22 1 321 133 120 117 117 111 107 100 86 105 91 90 102 94 82 89 78 55 29 82 107 112 110 100 101 97 91 83 81 72 67 65 64 60 56
1 4 0 33 41 27 18 1 341 105 114 119 119 117 105 98 92 91 72 72 85 81 81 91 75 49 65 79 92 106 113 111 109 102 94 92 88 72 71 65 54 56
4 12 8 12 50 44 29 16 354 5 89 98 100 100 96 94 75 87 86 67 61 75 65 71 69 53 55 72 78 89 104 112 111 108 101 94 95 86 70 71 62 53
9 12 20 12 26 59 51 32 12 3 29 73 86 99 102 87 80 86 86 75 70 69 64 61 63 50 40 57 64 62 76 106 114 111 110 106 91 92 86 63 63 60